Location: Düngen
(52.0952°N, 10.0219°E)
Time: 19:08:33
(UTC+00:00)

Cosmos 2263 - Pass Details

Date: 11 March 2026
Orbit: 831 x 862 km, 70.9° (Epoch: 20 April)

Event Time Altitude Azimuth Distance (km) Brightness Sun altitude
Rises 19:28:04 0° 190° (S) 3,396 7.2 -20.5°
Reaches altitude 10° 19:30:34 10° 185° (S) 2,460 6.4 -20.9°
Maximum altitude 19:36:00 50° 112° (ESE) 1,064 4.3 -21.6°
Drops below altitude 10° 19:41:25 10° 39° (NE) 2,458 6.5 -22.4°
Sets 19:43:54 0° 34° (NE) 3,394 7.3 -22.7°
